EW3309 Weather Reports


Display with metric or nautical units.
time (UTC)temp
F
wind
direction
speed
MPH
gust
MPH
rain 1hr
in
rain 24hr
in
rain mn
in
humidity
%
barometer
mb
20260905010011 84 296 0.0 0.0 0.00 0.00 0.00 41 1010.3
20260905004511 84 240 0.0 0.0 0.00 0.00 0.00 41 1010.3
20260905003013 84 235 0.0 0.0 0.00 0.00 0.00 39 1010.4
20260905001509 85 277 0.0 0.0 0.00 0.00 0.00 37 1010.5
20260905000008 86 277 0.0 0.0 0.00 0.00 0.00 35 1010.5
20260904234507 86 285 0.0 0.0 0.00 0.00 0.00 34 1010.5
20260904233008 87 255 0.0 0.0 0.00 0.00 0.00 32 1010.4
20260904231505 87 244 0.0 0.0 0.00 0.00 0.00 33 1010.5
20260904230004 87 216 0.0 0.0 0.00 0.00 0.00 34 1010.6
20260904224502 87 210 0.0 0.0 0.00 0.00 0.00 33 1010.7
20260904223110 87 221 0.0 0.0 0.00 0.00 0.00 34 1010.8
20260904221624 87 227 0.0 0.0 0.00 0.00 0.00 35 1010.9
20260904220056 87 254 0.0 0.0 0.00 0.00 0.00 36 1011.1
20260904214554 87 208 0.0 0.0 0.00 0.00 0.00 37 1011.0
20260904213057 87 215 0.0 0.0 0.00 0.00 0.00 37 1011.0
20260904211549 87 200 0.0 0.0 0.00 0.00 0.00 38 1011.2
20260904210048 87 186 0.0 0.0 0.00 0.00 0.00 37 1011.0
20260904204545 88 225 0.0 0.0 0.00 0.00 0.00 37 1011.1
20260904203045 88 215 0.0 0.0 0.00 0.00 0.00 36 1011.1
20260904201544 87 257 0.0 0.0 0.00 0.00 0.00 38 1011.1
20260904200058 87 227 0.0 0.0 0.00 0.00 0.00 38 1011.1
20260904194538 87 188 0.0 0.0 0.00 0.00 0.00 36 1011.4
20260904193040 86 193 0.0 0.0 0.00 0.00 0.00 38 1011.5
20260904191531 84 71 0.0 0.0 0.00 0.00 0.00 38 1011.7
20260904190029 84 271 0.0 0.0 0.00 0.00 0.00 42 1011.9
20260904184525 83 218 0.0 0.0 0.00 0.00 0.00 44 1012.2
20260904183022 82 192 0.0 0.0 0.00 0.00 0.00 48 1012.2
20260904181517 80 171 0.0 0.0 0.00 0.00 0.00 51 1012.3
20260904180013 78 204 0.0 0.0 0.00 0.00 0.00 55 1012.3
20260904174508 75 206 0.0 0.0 0.00 0.00 0.00 64 1012.4
20260904173004 72 163 0.0 0.0 0.00 0.00 0.00 68 1012.5
20260904171620 71 144 0.0 0.0 0.00 0.00 0.00 73 1012.6
20260904170056 69 200 0.0 0.0 0.00 0.00 0.00 75 1012.7
20260904164551 68 218 0.0 0.0 0.00 0.00 0.00 77 1012.6
20260904163054 67 245 0.0 0.0 0.00 0.00 0.00 78 1012.5
20260904161555 67 238 0.0 0.0 0.00 0.00 0.00 79 1012.4
20260904160043 66 175 0.0 0.0 0.00 0.00 0.00 81 1012.3
20260904154540 66 179 0.0 0.0 0.00 0.00 0.00 81 1012.4
20260904153101 66 178 0.0 0.0 0.00 0.00 0.00 81 1012.3
20260904151539 65 140 0.0 0.0 0.00 0.00 0.00 81 1012.2
20260904150037 65 120 0.0 0.0 0.00 0.00 0.00 82 1012.0
20260904144533 65 355 0.0 0.0 0.00 0.00 0.00 82 1012.0
20260904143030 65 355 0.0 0.0 0.00 0.00 0.00 82 1011.9
20260904141527 65 355 0.0 0.0 0.00 0.00 0.00 83 1011.9
20260904140024 65 355 0.0 0.0 0.00 0.00 0.00 84 1011.8
20260904134524 65 355 0.0 0.0 0.00 0.00 0.00 84 1011.8
20260904133019 65 355 0.0 0.0 0.00 0.00 0.00 84 1011.7
20260904131518 65 355 0.0 0.0 0.00 0.00 0.00 85 1011.3
20260904130017 64 355 0.0 0.0 0.00 0.00 0.00 86 1011.3
20260904124517 64 355 0.0 0.0 0.00 0.00 0.00 86 1011.3
20260904123015 64 355 0.0 0.0 0.00 0.00 0.00 86 1011.2
20260904121514 64 355 0.0 0.0 0.00 0.00 0.00 87 1011.2
20260904120016 64 355 0.0 0.0 0.00 0.00 0.00 87 1011.3
20260904114512 63 355 0.0 0.0 0.00 0.00 0.00 88 1011.3
20260904113011 63 355 0.0 0.0 0.00 0.00 0.00 88 1011.5
20260904111512 63 355 0.0 0.0 0.00 0.00 0.00 88 1011.5
20260904110008 62 355 0.0 0.0 0.00 0.00 0.00 88 1011.3
20260904104508 62 355 0.0 0.0 0.00 0.00 0.00 89 1011.3
20260904103006 61 355 0.0 0.0 0.00 0.00 0.00 88 1011.4
20260904101515 61 355 0.0 0.0 0.00 0.00 0.00 88 1011.4
20260904100005 61 355 0.0 0.0 0.00 0.00 0.00 88 1011.3
20260904094504 61 355 0.0 0.0 0.00 0.00 0.00 88 1011.2
20260904093004 60 355 0.0 0.0 0.00 0.00 0.00 88 1011.3
20260904091504 60 355 0.0 0.0 0.00 0.00 0.00 87 1011.2
20260904084602 60 355 0.0 0.0 0.00 0.00 0.00 85 1011.3
20260904083057 60 355 0.0 0.0 0.00 0.00 0.00 84 1011.4
20260904081556 61 355 0.0 0.0 0.00 0.00 0.00 84 1011.4
20260904080115 61 355 0.0 0.0 0.00 0.00 0.00 84 1011.5
20260904074553 62 355 0.0 0.0 0.00 0.00 0.00 84 1011.7
20260904073051 62 355 0.0 0.0 0.00 0.00 0.00 84 1011.7
20260904071548 63 355 0.0 0.0 0.00 0.00 0.00 85 1011.6
20260904070054 63 355 0.0 0.0 0.00 0.00 0.00 84 1011.5
20260904064545 63 355 0.0 0.0 0.00 0.00 0.00 83 1011.7
20260904063107 63 355 0.0 0.0 0.00 0.00 0.00 83 1011.5
20260904061542 63 355 0.0 0.0 0.00 0.00 0.00 81 1011.5
20260904060048 64 355 0.0 0.0 0.00 0.00 0.00 80 1011.5
20260904054546 64 355 0.0 0.0 0.00 0.00 0.00 80 1011.4
20260904053054 64 355 0.0 0.0 0.00 0.00 0.00 80 1011.4
20260904051541 65 355 0.0 0.0 0.00 0.00 0.00 80 1011.5
20260904050039 65 355 0.0 0.0 0.00 0.00 0.00 78 1011.4
20260904044540 66 355 0.0 0.0 0.00 0.00 0.00 78 1011.3
20260904043051 66 355 0.0 0.0 0.00 0.00 0.00 77 1011.4
20260904041537 66 355 0.0 0.0 0.00 0.00 0.00 78 1011.4
20260904040037 67 355 0.0 0.0 0.00 0.00 0.00 77 1011.3
20260904034537 67 5 0.0 0.0 0.00 0.00 0.00 76 1011.1
20260904033036 68 296 0.0 0.0 0.00 0.00 0.00 76 1011.1
20260904031535 68 290 0.0 0.0 0.00 0.00 0.00 75 1010.9
20260904030051 69 289 0.0 0.0 0.00 0.00 0.00 74 1010.9
20260904024535 70 269 0.0 0.0 0.00 0.00 0.00 73 1010.8
20260904023035 70 284 0.0 0.0 0.00 0.00 0.00 71 1010.6
20260904021548 72 286 0.0 0.0 0.00 0.00 0.00 68 1010.7
20260904020032 73 269 0.0 0.0 0.00 0.00 0.00 64 1010.7
20260904014534 74 292 0.0 0.0 0.00 0.00 0.00 62 1010.7
20260904013034 75 302 0.0 0.0 0.00 0.00 0.00 60 1010.8
20260904011531 76 279 0.0 0.0 0.00 0.00 0.00 59 1010.8